Regional Weather Roundup
Issued by NWS Northern Indiana

Home | Current Version | Previous Version | Text Only | Print | Product List | Glossary Off
Versions: 1 2 3 4 5 6 7 8 9 10 11 12 13 14 15 16 17 18 19 20 21 22 23 24 25 26 27 28 29 30 31 32 33 34 35 36 37 38 39 40 41 42 43 44 45 46 47 48 49 50

000
ASUS43 KIWX 012200
RWRIWX

KIWX WEATHER ROUNDUP
NATIONAL WEATHER SERVICE NORTHERN INDIANA
600 PM EDT MON JUN 01 2015

NOTE: "FAIR" INDICATES FEW OR NO CLOUDS BELOW 12,000 FEET WITH NO
SIGNIFICANT WEATHER AND/OR OBSTRUCTIONS TO VISIBILITY.

* THESE STATIONS ARE NOT UNDER NWS QUALITY CONTROL. THEY ALSO MAY NOT
  REPORT WEATHER SUCH AS PRECIPITATION OR FOG.

INZ001>027-012300-
NORTHERN INDIANA

CITY           SKY/WX    TMP DP  RH WIND       PRES   REMARKS
GARY*          MOSUNNY   55  45  67 N15       30.22S
SOUTH BEND     SUNNY     67  40  37 E8        30.17F
ELKHART*       PTSUNNY   66  41  39 E8        30.18F
GOSHEN         PTSUNNY   65  45  48 E9        30.17F
ANGOLA*        SUNNY     63  52  67 E9        30.17F
FORT WAYNE     CLOUDY    60  50  69 NE12      30.17F
PERU/GRISSOM   CLOUDY    62  52  70 NE8       30.15S

$$
INZ028>050-012300-
CENTRAL INDIANA

CITY           SKY/WX    TMP DP  RH WIND       PRES   REMARKS
LAFAYETTE      MOSUNNY   64  53  67 E9        30.15S
KOKOMO*        PTSUNNY   61  52  72 NE9       30.16R
MUNCIE*        CLOUDY    57  50  77 NE10      30.15F
INDIANAPOLIS   PTSUNNY   63  50  62 E9        30.12S

$$
MIZ043>046-050>051-056>058-064>065-071>073-077>080-012300-
SOUTHWEST LOWER MICHIGAN

CITY           SKY/WX    TMP DP  RH WIND       PRES   REMARKS
BATTLE CREEK   PTSUNNY   65  45  48 VRB7      30.19F
BENTON HARBOR  SUNNY     55  42  61 N10G17    30.19F
COLDWATER*     PTSUNNY   63  45  52 NE8       30.17F
HILLSDALE*     PTSUNNY   63  43  47 E9        30.18S
HOLLAND        SUNNY     68  40  35 E12       30.19F
GRAND RAPIDS   MOSUNNY   65  35  33 NE15      30.20F
KALAMAZOO      PTSUNNY   68  44  42 NE10      30.19F
STURGIS*       PTSUNNY   63  45  51 NE8       30.17F
THREE RIVERS*  FAIR      66  42  40 E9G16     30.17F

$$
OHZ001>008-015>018-024>025-012300-
NORTHWEST OHIO

CITY           SKY/WX    TMP DP  RH WIND       PRES   REMARKS
DEFIANCE       CLOUDY    61  48  62 N9        30.17F
FINDLAY        CLOUDY    56  48  74 NE12      30.16F
TOLEDO EXPRESS CLOUDY    61  45  55 NE12      30.17F
TOLEDO METCALF CLOUDY    59  47  64 E9        30.18F
LIMA           CLOUDY    54  49  83 NE14      30.16F

$$
AND FOR LAKE MICHIGAN COASTAL AND OPEN LAKE BUOY OBSERVATIONS

STATION/POSITION TEMP    WIND        PRES    VSBY  WAVE
                 AIR SEA DIR/SP/G                  HT/PER
                 (F)     (DEG/KT/KT) (MB)    (MI)  (FT/S)
CALUMET HARBOR    52     360/ 10/ 14   N/A
MICHIGAN CITY     50     350/ 13/ 16   N/A
BURNS HARBOR      50      20/ 13/ 15 1023.4S
SAINT JOSEPH      52     350/  9/ 13 1022.7F
SOUTH LAKE BUOY   42 38  340/ 12/ 14 1023.9F         1/ 3
4 MI NW BRIDGMAN  53 55   20/ 14/ 16   N/A           3/ 4
MICHIGAN CITY     48 54   10/ 12/ 17   N/A           3/ 3

$$
&&


USA.gov is the U.S. government's official web portal to all federal, state and local government web resources and services.